Weather History for KSPI - March, 2013

Change the Weather History Date:

Saturday, March 30, 2013

  Actual Average Record
Temperature  
Mean Temperature 45 °F 48 °F  
Max Temperature 55 °F 58 °F 83 °F (1986)
Min Temperature 35 °F 37 °F 17 °F (1964)
Degree Days  
Heating Degree Days 20 18  
Month to date heating degree days 895 693  
Since 1 July heating degree days 4804 4964  
Cooling Degree Days 0 0  
Month to date cooling degree days 0 0  
Year to date cooling degree days 0 0  
Moisture  
Dew Point 40 °F    
Average Humidity 79    
Maximum Humidity 93    
Minimum Humidity 64    
Precipitation  
Precipitation T in 0.10 in 1.41 in (1926)
Month to date precipitation 3.33 2.53  
Year to date precipitation 9.05 6.16  
Snow  
Snow 0.00 in 0.10 in 6.00 in (1926)
Month to date snowfall 19.6 2.5  
Since 1 July snowfall 33.1 20.6  
Snow Depth 0.00 in    
Sea Level Pressure  
Sea Level Pressure 30.07 in    
Wind  
Wind Speed 10 mph (SSE)    
Max Wind Speed 22 mph    
Max Gust Speed 28 mph    
Visibility 9 miles    
Events Rain    
T = Trace of Precipitation, MM = Missing Value Source: NWS Daily Summary

Daily Weather History Graph

Daily Weather History Graph

Search for Another Location

Airport or City:

Trip Planner

Search our weather history database for the weather conditions in past years. The results will help you decide how hot, cold, wet, or windy it might be!

Date:

Astronomy

Mar. 30, 2013 Rise Set
Actual Time 6:45 AM CDT 7:21 PM CDT
Civil Twilight 6:18 AM CDT 7:48 PM CDT
Nautical Twilight 5:46 AM CDT 8:20 PM CDT
Astronomical Twilight 5:13 AM CDT 8:53 PM CDT
Moon 11:27 PM CDT (3/30) 8:41 AM CDT (3/30)
Length of Visible Light 13h 29m
Length of Day
12h 35m
Waning Gibbous, 86% of the Moon is Illuminated
Mar 30
Waning Gibbous
Apr 2
Last Quarter
Apr 10
New
Apr 18
First Quarter
Apr 25
Full

Hourly Weather History & Observations

Time (CDT) Temp. Windchill Dew Point Humidity Pressure Visibility Wind Dir Wind Speed Gust Speed Precip Events Conditions
12:52 AM 39.0 °F 34.0 °F 33.1 °F 79% 30.23 in 10.0 mi SE 6.9 mph - N/A   Clear
1:52 AM 39.9 °F 35.8 °F 33.1 °F 77% 30.22 in 10.0 mi ESE 5.8 mph - N/A   Clear
2:52 AM 39.9 °F 35.1 °F 33.1 °F 77% 30.20 in 10.0 mi SE 6.9 mph - N/A   Clear
3:52 AM 39.0 °F 35.7 °F 32.0 °F 76% 30.20 in 10.0 mi SE 4.6 mph - N/A   Clear
4:52 AM 37.0 °F 33.3 °F 32.0 °F 82% 30.20 in 10.0 mi SSE 4.6 mph - N/A   Clear
5:52 AM 37.0 °F 31.6 °F 32.0 °F 82% 30.18 in 10.0 mi SE 6.9 mph - N/A   Clear
6:52 AM 36.0 °F 31.1 °F 32.0 °F 86% 30.17 in 10.0 mi SE 5.8 mph - N/A   Clear
7:52 AM 39.0 °F 34.0 °F 36.0 °F 89% 30.15 in 7.0 mi ESE 6.9 mph - N/A   Clear
8:52 AM 46.9 °F - 43.0 °F 86% 30.14 in 8.0 mi SE 8.1 mph - N/A   Clear
9:52 AM 51.1 °F - 44.1 °F 77% 30.14 in 10.0 mi SSE 9.2 mph - N/A   Clear
10:52 AM 52.0 °F - 44.1 °F 74% 30.13 in 10.0 mi South 17.3 mph - N/A   Clear
11:52 AM 53.1 °F - 44.1 °F 71% 30.11 in 10.0 mi South 17.3 mph 24.2 mph N/A   Clear
12:52 PM 54.0 °F - 44.1 °F 69% 30.08 in 10.0 mi SSE 19.6 mph - N/A   Clear
1:52 PM 54.0 °F - 43.0 °F 66% 30.05 in 10.0 mi SSE 18.4 mph - N/A   Partly Cloudy
2:52 PM 54.0 °F - 42.1 °F 64% 30.01 in 10.0 mi South 18.4 mph - N/A   Partly Cloudy
3:52 PM 54.0 °F - 41.0 °F 62% 30.01 in 10.0 mi South 18.4 mph 21.9 mph N/A   Clear
4:52 PM 54.0 °F - 42.1 °F 64% 29.98 in 10.0 mi SSW 12.7 mph - N/A   Clear
5:52 PM 52.0 °F - 44.1 °F 74% 29.96 in 10.0 mi South 13.8 mph - N/A   Partly Cloudy
6:52 PM 51.1 °F - 44.1 °F 77% 29.95 in 10.0 mi South 8.1 mph - N/A   Overcast
7:52 PM 50.0 °F - 45.0 °F 83% 29.94 in 10.0 mi SSW 9.2 mph - 0.00 in Rain Light Rain
8:52 PM 48.0 °F - 45.0 °F 89% 29.95 in 9.0 mi SW 5.8 mph - 0.00 in Rain Light Rain
9:52 PM 46.9 °F - 45.0 °F 93% 29.94 in 7.0 mi SSW 6.9 mph - 0.00 in   Overcast
10:52 PM 46.9 °F - 45.0 °F 93% 29.93 in 7.0 mi South 9.2 mph - N/A   Overcast
11:52 PM 46.9 °F - 44.1 °F 90% 29.92 in 7.0 mi SSW 6.9 mph - N/A   Overcast